Location: Chillicothe
(39.7950°N, 93.5520°W)
Time: 15:25:27
(UTC-06:00)

Explorer 11/Cluster Stage 4 - Pass Details

Date: 24 October 2019
Orbit: 467 x 1259 km, 28.8° (Epoch: 22 November)

Event Time Altitude Azimuth Distance (km) Brightness Sun altitude
Rises 11:33:58 0° 246° (WSW) 2,487 9.2 34.8°
Reaches altitude 10° 11:37:11 10° 215° (SW) 1,612 8.7 35.0°
Maximum altitude 11:38:45 12° 189° (S) 1,484 9.0 35.2°
Drops below altitude 10° 11:40:22 10° 163° (SSE) 1,654 9.6 35.3°
Sets 11:43:46 0° 133° (SE) 2,628 10.1 35.5°
